Location: Palomar Mountain Lodge
(33.3110°N, 116.8495°W)
Time: 03:35:30
(UTC-07:00)

Daily predictions for brighter satellites

Satellite Brightness Start Highest point End
(mag) Time Altitude Azimuth Time Altitude Azimuth Time Altitude Azimuth
Cosmos 2219 Rocket 4.4 03:24:57 10° N 03:29:10 21° ENE 03:33:23 10° ESE
Cosmos 2344 3.7 03:36:24 69° NE 03:36:24 69° NE 03:43:34 10° NNE
CZ-2D R/B 4.5 03:31:12 10° NNE 03:32:06 15° NNE 03:32:06 15° NNE
FALCON 9 R/B 4.2 03:48:27 24° SE 03:49:49 25° SE 04:00:01 10° ENE
Lacrosse 5 3.2 03:59:42 36° ENE 03:59:42 36° ENE 04:02:57 10° NE
Cosmos 2333 Rocket 3.9 03:57:11 10° N 04:02:11 30° ENE 04:07:07 10° ESE
Resurs 1-4 Rocket 4.2 04:04:00 10° N 04:05:07 16° N 04:05:07 16° N
ADEOS Rocket 4.4 04:03:16 10° NNE 04:09:50 40° E 04:15:45 10° SSE
NOSS 3-4 (A) 3.4 04:13:49 85° ESE 04:13:49 85° ESE 04:20:18 10° NNE
NOSS 3-4 (C) 3.4 04:13:53 84° SE 04:13:55 84° ESE 04:20:24 10° NNE
CZ-4C R/B 2.8 04:11:39 50° NW 04:13:57 83° WSW 04:21:54 10° SSE
Cosmos 1605 Rocket 4.2 04:11:34 10° N 04:17:41 67° E 04:23:51 10° SSE
Cosmos 1934 Rocket 4.0 04:12:11 10° N 04:17:29 65° NNW 04:17:29 65° NNW
RESURS DK-1 3.7 04:22:42 37° E 04:22:42 37° E 04:26:00 10° NE
Hubble Space Telescope 2.9 04:25:51 21° SE 04:25:51 21° SE 04:27:29 10° ESE
Tiangong 1 4.3 04:26:32 13° NE 04:26:32 13° NE 04:26:56 10° NE
CZ-2C R/B 4.1 04:25:16 59° ENE 04:25:16 59° ENE 04:29:44 10° N
NOSS 0 Rocket 4.4 04:22:10 10° NNW 04:28:18 58° ENE 04:34:25 10° SE
CZ-4B R/B 3.2 04:23:11 10° NNE 04:28:36 76° ESE 04:29:48 55° S
Meteor 1-13 Rocket 4.2 04:29:50 62° S 04:30:52 90° E 04:36:41 10° N
Cosmos 2237 Rocket 3.2 04:26:44 10° N 04:32:06 44° ENE 04:37:25 10° SE
Okean O Rocket 2.9 04:29:11 10° N 04:31:36 32° N 04:31:36 32° N
Cosmos 1025 Rocket 3.3 04:36:13 63° ESE 04:36:27 65° E 04:40:45 10° NNE
GOES 2 Rocket 4.3 04:36:51 46° SSW 04:37:55 51° SSE 04:45:23 10° E
Cosmos 1346 Rocket 4.1 04:37:54 26° SE 04:39:30 39° E 04:43:12 10° NNE
DELTA 2 R/B (1) 3.6 04:40:42 59° SSW 04:41:30 69° SSE 04:47:02 10° ENE
Cosmos 1980 4.1 04:39:43 10° NNW 04:45:22 64° ENE 04:50:58 10° SSE
ATLAS 5 CENTAUR R/B 3.5 04:39:44 10° NNW 04:45:34 44° NE 04:51:45 10° SE
Cosmos 923 Rocket 4.1 04:40:15 10° NNW 04:45:37 76° ENE 04:50:55 10° SSE
Cosmos 1743 3.2 04:46:06 10° N 04:49:02 51° N 04:49:02 51° N
SL-16 R/B 4.3 04:45:21 10° N 04:50:06 27° ENE 04:54:49 10° ESE
Delta 2 Rocket 3.3 04:54:27 60° NNE 04:54:27 60° NNE 04:57:46 10° ENE
Cosmos 2227 Rocket 2.4 04:59:04 44° W 05:00:06 49° WNW 05:05:35 10° N
Cosmos 1726 Rocket 4.3 04:56:03 10° N 05:00:21 53° E 05:04:36 10° SSE
CZ-4B R/B 3.4 04:56:15 10° N 05:00:06 46° WNW 05:00:06 46° WNW
Cosmos 1898 Rocket 4.0 04:59:56 10° S 05:05:09 61° ESE 05:10:23 10° NNE
Cosmos 1892 Rocket 3.6 05:00:52 11° S 05:05:11 84° E 05:09:40 10° N
Cosmos 773 Rocket 4.2 05:02:57 10° NNW 05:07:53 45° WSW 05:12:46 10° S
Cosmos 1607 4.4 05:07:37 34° W 05:08:30 35° WSW 05:14:04 10° S
NOSS 3-2 (A) 4.0 05:01:03 10° NNW 05:08:45 84° WSW 05:16:54 10° SSE
Cosmos 2297 Rocket 2.2 05:07:18 32° SW 05:09:49 58° WNW 05:15:23 10° NNE
ADEOS II 2.0 05:04:36 10° NNE 05:09:53 90° W 05:15:08 10° SSW
Okean 2 3.3 05:08:06 12° S 05:11:59 86° W 05:16:08 10° N
ISS -3.0 05:13:16 47° SSW 05:13:16 47° SSW 05:16:03 10° SSE
USA 238 DEB 4.3 05:10:40 27° WNW 05:12:57 32° WSW 05:19:02 10° S
USA 238 4.3 05:10:33 26° WNW 05:13:04 33° WSW 05:19:09 10° S
Cosmos 2219 Rocket 2.4 05:07:55 10° NNW 05:13:19 46° WSW 05:18:41 10° S
PSLV R/B 3.6 05:16:03 10° N 05:20:16 53° WNW 05:23:09 19° SW
Cosmos 1937 Rocket 4.0 05:17:11 10° S 05:22:17 62° ESE 05:27:27 10° NNE
Meteor 1-15 Rocket 4.4 05:17:59 10° N 05:23:34 75° E 05:29:09 10° SSE
USA 215 4.5 05:19:13 10° SSW 05:23:15 19° SW 05:23:15 19° SW
Cosmos 1000 Rocket 4.4 05:18:05 10° S 05:24:23 78° W 05:30:44 10° N
Meteor 1-31 Rocket 3.0 05:22:43 10° NNE 05:26:37 72° ESE 05:30:30 10° S
COBE Rocket 4.0 05:21:55 10° NNE 05:26:42 75° E 05:31:21 10° S
MOS 1 Rocket 3.5 05:22:20 10° NNE 05:27:09 79° ESE 05:32:15 10° S
Cosmos 2016 Rocket 4.2 05:25:57 10° N 05:32:17 75° E 05:38:32 10° S
Okean-O 2.8 05:28:59 10° N 05:33:15 48° WNW 05:37:29 10° SSW
Feng Yun 1-1 Rocket 4.3 05:28:09 10° N 05:33:43 64° WNW 05:39:26 10° SSW
OTV 4 0.7 05:35:21 25° NW 05:36:39 51° NNE 05:39:19 10° E
Cosmos 2173 Rocket 3.9 05:32:18 10° NNW 05:38:20 69° W 05:44:25 10° S
Cosmos 2228 3.1 05:34:14 10° N 05:38:39 80° E 05:42:59 10° S
Cosmos 2112 Rocket 4.1 05:33:54 10° NNW 05:38:59 50° WSW 05:44:01 10° S
NOSS 2-2 (D) 4.1 05:36:09 10° SSW 05:40:03 54° ESE 05:44:19 10° NE
Lacrosse 5 3.2 05:38:55 17° WNW 05:41:15 23° NW 05:45:15 10° NNE
Cosmos 2123 Rocket 4.1 05:36:59 10° S 05:43:09 80° E 05:49:19 10° N
Cosmos 1680 Rocket 4.0 05:39:24 10° NW 05:44:13 37° W 05:48:58 10° SSW
NOSS 3-2 (C) 4.1 05:37:49 10° NW 05:45:24 61° WSW 05:53:24 10° SSE
Cosmos 2058 Rocket 3.1 05:41:53 10° NNW 05:46:08 55° W 05:50:22 10° S
Cosmos 2333 Rocket 2.9 05:41:26 10° NW 05:46:19 30° WSW 05:51:10 10° SSW
Cosmos 1459 Rocket 4.1 05:42:49 10° NNW 05:48:59 54° W 05:55:05 10° SSW
CENTAUR R/B 4.1 05:42:51 10° NNW 05:50:29 49° NE 05:58:28 10° SE
Aureole 2 Rocket 3.0 05:51:33 10° N 05:54:56 56° ENE 05:58:00 10° SSE
ADEOS Rocket 4.0 05:48:59 10° N 05:55:01 31° WNW 06:00:33 10° SW
NOSS 2-2 (C) 3.5 05:51:18 10° SSW 05:55:21 85° ESE 05:59:46 10° NNE
Cosmos 2298 Rocket 4.5 05:50:29 10° SW 05:55:24 40° WNW 06:00:23 10° N
Cosmos 1515 3.6 05:51:56 10° S 05:55:44 88° W 05:59:35 10° N
COSMO-SKYMED 1 3.4 05:52:34 10° SSE 05:56:47 57° ENE 06:01:02 10° N
NOSS 2-2 (E) 3.4 05:53:39 10° SSW 05:57:43 80° WNW 06:02:15 10° NNE
Delta 142 4.1 05:56:23 12° WSW 06:00:10 42° S 06:04:00 10° ESE
RESURS DK-1 4.2 05:58:41 11° W 06:00:21 14° WNW 06:02:31 10° NNW
Tiangong 1 3.3 05:58:57 10° NW 06:00:53 15° N 06:02:49 10° NNE
CZ-4C R/B 4.4 05:58:19 10° WNW 06:01:49 14° WSW 06:05:25 10° SW
Cosmos 1666 3.8 05:59:20 10° NW 06:02:23 23° W 06:05:24 10° SW
USA 129 2.8 06:01:49 10° SSW 06:03:34 23° W 06:05:15 10° NW
Hubble Space Telescope 2.4 06:01:19 10° WSW 06:04:27 21° SSW 06:07:35 10° SSE
BREEZE-M DEB (TANK) 4.1 06:07:33 10° NNW 06:10:02 31° NE 06:14:20 10° ESE
Cosmos 292 Rocket 4.3 06:06:06 10° NW 06:10:33 37° W 06:15:00 10° SSW
Cosmos 2227 4.2 06:07:27 10° SSW 06:13:10 71° WNW 06:18:55 10° NNE
Cosmos 1340 3.0 06:11:53 10° S 06:15:38 72° E 06:19:24 10° NNE
SL-24 R/B 4.1 06:11:29 10° N 06:15:42 51° WNW 06:19:27 10° SSW
Cosmos 2237 Rocket 3.4 06:11:47 10° NW 06:15:44 20° W 06:19:41 10° SW
